| time (UTC) | temp F | wind direction | speed MPH | gust MPH | rain 1hr in | rain 24hr in | rain mn in | humidity % | barometer mb |
| 20260906194429 | 92 | 97 | 0.0 | 0.0 | 0.00 | 0.01 | 0.01 | 59 | 1011.8 |
| 20260906193924 | 92 | 94 | 0.0 | 0.0 | 0.00 | 0.01 | 0.01 | 65 | 1012.1 |
| 20260906193419 | 92 | 103 | 0.0 | 0.0 | 0.00 | 0.01 | 0.01 | 65 | 1012.0 |
| 20260906192915 | 92 | 98 | 0.0 | 0.0 | 0.00 | 0.01 | 0.01 | 63 | 1012.2 |
| 20260906192414 | 91 | 105 | 0.0 | 0.0 | 0.00 | 0.01 | 0.01 | 62 | 1012.0 |
| 20260906191913 | 91 | 74 | 1.0 | 1.0 | 0.00 | 0.01 | 0.01 | 63 | 1012.0 |
| 20260906191408 | 91 | 95 | 0.0 | 0.0 | 0.00 | 0.01 | 0.01 | 63 | 1012.3 |
| 20260906190902 | 91 | 105 | 0.0 | 0.0 | 0.00 | 0.01 | 0.01 | 62 | 1012.4 |
| 20260906190401 | 91 | 91 | 0.0 | 0.0 | 0.00 | 0.01 | 0.01 | 65 | 1012.4 |
| 20260906185856 | 91 | 108 | 0.0 | 0.0 | 0.00 | 0.01 | 0.01 | 64 | 1012.5 |
| 20260906185355 | 91 | 92 | 0.0 | 0.0 | 0.00 | 0.01 | 0.01 | 66 | 1012.6 |
| 20260906184855 | 91 | 107 | 0.0 | 0.0 | 0.00 | 0.01 | 0.01 | 64 | 1012.6 |
| 20260906184350 | 91 | 103 | 0.0 | 0.0 | 0.00 | 0.01 | 0.01 | 64 | 1012.9 |
| 20260906183845 | 91 | 73 | 0.0 | 0.0 | 0.00 | 0.01 | 0.01 | 63 | 1013.0 |
| 20260906183341 | 90 | 125 | 0.0 | 0.0 | 0.00 | 0.01 | 0.01 | 64 | 1013.0 |
| 20260906182836 | 90 | 118 | 0.0 | 0.0 | 0.00 | 0.01 | 0.01 | 68 | 1013.0 |
| 20260906182331 | 90 | 104 | 0.0 | 0.0 | 0.00 | 0.01 | 0.01 | 67 | 1013.0 |
| 20260906181826 | 90 | 120 | 0.0 | 0.0 | 0.00 | 0.01 | 0.01 | 65 | 1013.2 |
| 20260906181323 | 89 | 119 | 0.0 | 0.0 | 0.00 | 0.01 | 0.01 | 68 | 1013.2 |
| 20260906180818 | 89 | 127 | 0.0 | 0.0 | 0.00 | 0.01 | 0.01 | 66 | 1013.3 |
| 20260906180312 | 89 | 141 | 0.0 | 0.0 | 0.00 | 0.01 | 0.01 | 70 | 1013.2 |
| 20260906175809 | 89 | 154 | 2.0 | 2.0 | 0.00 | 0.01 | 0.01 | 70 | 1013.4 |
| 20260906175307 | 89 | 139 | 1.0 | 1.0 | 0.00 | 0.01 | 0.01 | 71 | 1013.5 |
| 20260906174804 | 89 | 119 | 0.0 | 0.0 | 0.00 | 0.01 | 0.01 | 73 | 1013.7 |
| 20260906174304 | 89 | 131 | 0.0 | 0.0 | 0.00 | 0.01 | 0.01 | 73 | 1013.8 |
| 20260906173759 | 89 | 101 | 0.0 | 0.0 | 0.00 | 0.01 | 0.01 | 70 | 1013.9 |
| 20260906173255 | 89 | 120 | 0.0 | 0.0 | 0.00 | 0.01 | 0.01 | 76 | 1013.8 |
| 20260906172753 | 89 | 145 | 0.0 | 0.0 | 0.00 | 0.01 | 0.01 | 73 | 1014.0 |
| 20260906172250 | 89 | 165 | 1.0 | 1.0 | 0.00 | 0.01 | 0.01 | 70 | 1014.0 |
| 20260906171744 | 88 | 128 | 0.0 | 0.0 | 0.00 | 0.01 | 0.01 | 73 | 1014.0 |
| 20260906171239 | 88 | 128 | 0.0 | 0.0 | 0.00 | 0.01 | 0.01 | 74 | 1014.3 |
| 20260906170735 | 87 | 80 | 0.0 | 0.0 | 0.00 | 0.01 | 0.01 | 76 | 1014.2 |
| 20260906170231 | 87 | 103 | 0.0 | 0.0 | 0.00 | 0.01 | 0.01 | 76 | 1014.2 |
| 20260906165726 | 87 | 148 | 1.0 | 1.0 | 0.00 | 0.01 | 0.01 | 76 | 1014.5 |
| 20260906165221 | 86 | 133 | 0.0 | 0.0 | 0.00 | 0.01 | 0.01 | 77 | 1014.5 |
| 20260906164715 | 85 | 117 | 0.0 | 0.0 | 0.00 | 0.01 | 0.01 | 81 | 1014.4 |
| 20260906164210 | 85 | 89 | 0.0 | 0.0 | 0.00 | 0.01 | 0.01 | 83 | 1014.4 |
| 20260906163706 | 84 | 116 | 0.0 | 0.0 | 0.00 | 0.01 | 0.01 | 81 | 1014.5 |
| 20260906163203 | 84 | 112 | 0.0 | 1.0 | 0.00 | 0.01 | 0.01 | 89 | 1014.5 |
| 20260906162659 | 84 | 6 | 1.0 | 2.0 | 0.00 | 0.01 | 0.01 | 87 | 1014.6 |
| 20260906162159 | 83 | 122 | 1.0 | 1.0 | 0.00 | 0.01 | 0.01 | 88 | 1014.6 |
| 20260906161653 | 82 | 108 | 0.0 | 0.0 | 0.07 | 0.01 | 0.01 | 90 | 1014.6 |
| 20260906161152 | 82 | 111 | 0.0 | 0.0 | 0.07 | 0.01 | 0.01 | 93 | 1014.8 |
| 20260906160652 | 80 | 109 | 0.0 | 0.0 | 0.00 | 0.00 | 0.00 | 93 | 1014.7 |
| 20260906160151 | 80 | 126 | 0.0 | 0.0 | 0.00 | 0.00 | 0.00 | 99 | 1014.5 |
| 20260906155648 | 80 | 114 | 0.0 | 0.0 | 0.00 | 0.00 | 0.00 | 99 | 1014.7 |
| 20260906155144 | 80 | 99 | 0.0 | 0.0 | 0.00 | 0.00 | 0.00 | 99 | 1014.7 |
| 20260906154639 | 79 | 87 | 0.0 | 0.0 | 0.00 | 0.00 | 0.00 | 99 | 1014.7 |
| 20260906154139 | 78 | 127 | 0.0 | 1.0 | 0.00 | 0.00 | 0.00 | 99 | 1014.6 |
| 20260906153638 | 78 | 98 | 0.0 | 0.0 | 0.00 | 0.00 | 0.00 | 99 | 1014.6 |
| 20260906153133 | 78 | 89 | 0.0 | 0.0 | 0.00 | 0.00 | 0.00 | 99 | 1014.6 |
| 20260906152633 | 78 | 83 | 0.0 | 1.0 | 0.00 | 0.00 | 0.00 | 99 | 1014.7 |
| 20260906152127 | 77 | 109 | 0.0 | 0.0 | 0.00 | 0.00 | 0.00 | 99 | 1014.5 |
| 20260906151621 | 77 | 181 | 0.0 | 0.0 | 0.00 | 0.00 | 0.00 | 99 | 1014.5 |
| 20260906151118 | 77 | 103 | 0.0 | 0.0 | 0.00 | 0.00 | 0.00 | 99 | 1014.5 |
| 20260906150613 | 77 | 103 | 0.0 | 0.0 | 0.00 | 0.00 | 0.00 | 99 | 1014.7 |
| 20260906150108 | 77 | 98 | 0.0 | 0.0 | 0.00 | 0.00 | 0.00 | 99 | 1014.4 |
| 20260906145607 | 76 | 97 | 0.0 | 0.0 | 0.00 | 0.00 | 0.00 | 99 | 1014.7 |
| 20260906145102 | 77 | 94 | 0.0 | 0.0 | 0.00 | 0.00 | 0.00 | 99 | 1014.5 |
| 20260906144556 | 76 | 100 | 0.0 | 0.0 | 0.00 | 0.00 | 0.00 | 99 | 1014.4 |
| 20260906144052 | 76 | 100 | 0.0 | 0.0 | 0.00 | 0.00 | 0.00 | 99 | 1014.5 |
| 20260906143546 | 76 | 95 | 0.0 | 0.0 | 0.00 | 0.00 | 0.00 | 99 | 1014.7 |
| 20260906143043 | 76 | 91 | 0.0 | 0.0 | 0.00 | 0.00 | 0.00 | 99 | 1014.6 |
| 20260906142543 | 76 | 112 | 0.0 | 0.0 | 0.00 | 0.00 | 0.00 | 99 | 1014.6 |
| 20260906142039 | 75 | 112 | 0.0 | 0.0 | 0.00 | 0.00 | 0.00 | 99 | 1014.6 |
| 20260906141537 | 75 | 112 | 0.0 | 0.0 | 0.00 | 0.00 | 0.00 | 99 | 1014.6 |
| 20260906141032 | 75 | 105 | 0.0 | 0.0 | 0.00 | 0.00 | 0.00 | 99 | 1014.5 |
| 20260906140532 | 75 | 121 | 0.0 | 0.0 | 0.00 | 0.00 | 0.00 | 99 | 1014.6 |
| 20260906140031 | 75 | 102 | 0.0 | 0.0 | 0.00 | 0.00 | 0.00 | 99 | 1014.5 |
| 20260906135528 | 75 | 102 | 0.0 | 0.0 | 0.00 | 0.00 | 0.00 | 99 | 1014.6 |
| 20260906135024 | 75 | 104 | 0.0 | 0.0 | 0.00 | 0.00 | 0.00 | 99 | 1014.3 |
| 20260906134520 | 75 | 104 | 0.0 | 0.0 | 0.00 | 0.00 | 0.00 | 99 | 1014.3 |
| 20260906134014 | 74 | 104 | 0.0 | 0.0 | 0.00 | 0.00 | 0.00 | 99 | 1014.2 |
| 20260906133510 | 74 | 104 | 0.0 | 0.0 | 0.00 | 0.00 | 0.00 | 99 | 1014.4 |
| 20260906133006 | 74 | 104 | 0.0 | 0.0 | 0.00 | 0.00 | 0.00 | 99 | 1014.3 |
| 20260906132500 | 74 | 104 | 0.0 | 0.0 | 0.00 | 0.00 | 0.00 | 99 | 1013.8 |
| 20260906131955 | 73 | 104 | 0.0 | 0.0 | 0.00 | 0.00 | 0.00 | 99 | 1014.0 |
| 20260906131451 | 73 | 104 | 0.0 | 0.0 | 0.00 | 0.00 | 0.00 | 99 | 1013.9 |
| 20260906130946 | 73 | 104 | 0.0 | 0.0 | 0.00 | 0.00 | 0.00 | 99 | 1013.8 |
| 20260906130446 | 73 | 104 | 0.0 | 0.0 | 0.00 | 0.00 | 0.00 | 99 | 1013.7 |
| 20260906125940 | 73 | 103 | 0.0 | 0.0 | 0.00 | 0.00 | 0.00 | 99 | 1013.9 |
| 20260906125437 | 73 | 104 | 0.0 | 0.0 | 0.00 | 0.00 | 0.00 | 99 | 1013.8 |
| 20260906124932 | 73 | 104 | 0.0 | 0.0 | 0.00 | 0.00 | 0.00 | 99 | 1014.0 |
| 20260906124428 | 73 | 104 | 0.0 | 0.0 | 0.00 | 0.00 | 0.00 | 99 | 1013.8 |
| 20260906123927 | 73 | 104 | 0.0 | 0.0 | 0.00 | 0.00 | 0.00 | 99 | 1013.8 |
| 20260906123427 | 73 | 104 | 0.0 | 0.0 | 0.00 | 0.00 | 0.00 | 99 | 1013.7 |
| 20260906122921 | 73 | 104 | 0.0 | 0.0 | 0.00 | 0.00 | 0.00 | 99 | 1013.7 |
| 20260906122416 | 73 | 104 | 0.0 | 0.0 | 0.00 | 0.00 | 0.00 | 99 | 1013.8 |
| 20260906121913 | 73 | 104 | 0.0 | 0.0 | 0.00 | 0.00 | 0.00 | 99 | 1013.7 |
| 20260906121409 | 73 | 104 | 0.0 | 0.0 | 0.00 | 0.00 | 0.00 | 99 | 1013.7 |
| 20260906120905 | 73 | 104 | 0.0 | 0.0 | 0.00 | 0.00 | 0.00 | 99 | 1013.7 |
| 20260906120400 | 73 | 104 | 0.0 | 0.0 | 0.00 | 0.00 | 0.00 | 99 | 1013.6 |
| 20260906115856 | 73 | 104 | 0.0 | 0.0 | 0.00 | 0.00 | 0.00 | 99 | 1013.4 |
| 20260906115352 | 72 | 104 | 0.0 | 0.0 | 0.00 | 0.00 | 0.00 | 99 | 1013.5 |
| 20260906114851 | 73 | 103 | 0.0 | 0.0 | 0.00 | 0.00 | 0.00 | 99 | 1013.5 |
| 20260906114346 | 73 | 103 | 0.0 | 0.0 | 0.00 | 0.00 | 0.00 | 99 | 1013.2 |
| 20260906113841 | 73 | 103 | 0.0 | 0.0 | 0.00 | 0.00 | 0.00 | 99 | 1013.2 |
| 20260906113340 | 73 | 103 | 0.0 | 0.0 | 0.00 | 0.00 | 0.00 | 99 | 1013.1 |
| 20260906112835 | 73 | 103 | 0.0 | 0.0 | 0.00 | 0.00 | 0.00 | 99 | 1013.0 |
| 20260906112332 | 73 | 103 | 0.0 | 0.0 | 0.00 | 0.00 | 0.00 | 99 | 1013.0 |
| 20260906111826 | 72 | 103 | 0.0 | 0.0 | 0.00 | 0.00 | 0.00 | 99 | 1013.2 |
| 20260906111326 | 73 | 103 | 0.0 | 0.0 | 0.00 | 0.00 | 0.00 | 99 | 1012.9 |
| 20260906110821 | 73 | 103 | 0.0 | 0.0 | 0.00 | 0.00 | 0.00 | 99 | 1013.0 |
| 20260906110317 | 73 | 103 | 0.0 | 0.0 | 0.00 | 0.00 | 0.00 | 99 | 1013.1 |
| 20260906105816 | 73 | 103 | 0.0 | 0.0 | 0.00 | 0.00 | 0.00 | 99 | 1013.0 |
| 20260906105312 | 73 | 103 | 0.0 | 0.0 | 0.00 | 0.00 | 0.00 | 99 | 1012.5 |
| 20260906104807 | 73 | 103 | 0.0 | 0.0 | 0.00 | 0.00 | 0.00 | 99 | 1012.9 |
| 20260906104305 | 73 | 103 | 0.0 | 0.0 | 0.00 | 0.00 | 0.00 | 99 | 1012.9 |
| 20260906103803 | 73 | 103 | 0.0 | 0.0 | 0.00 | 0.00 | 0.00 | 99 | 1012.6 |
| 20260906103257 | 73 | 103 | 0.0 | 0.0 | 0.00 | 0.00 | 0.00 | 99 | 1012.4 |
| 20260906102754 | 73 | 103 | 0.0 | 0.0 | 0.00 | 0.00 | 0.00 | 99 | 1012.5 |
| 20260906102252 | 73 | 103 | 0.0 | 0.0 | 0.00 | 0.00 | 0.00 | 99 | 1012.5 |
| 20260906101748 | 73 | 103 | 0.0 | 0.0 | 0.00 | 0.00 | 0.00 | 99 | 1012.6 |
| 20260906101243 | 73 | 103 | 0.0 | 0.0 | 0.00 | 0.00 | 0.00 | 99 | 1012.3 |
| 20260906100738 | 73 | 103 | 0.0 | 0.0 | 0.00 | 0.00 | 0.00 | 99 | 1012.3 |
| 20260906100237 | 73 | 103 | 0.0 | 0.0 | 0.00 | 0.00 | 0.00 | 99 | 1012.3 |
| 20260906095733 | 73 | 103 | 0.0 | 0.0 | 0.00 | 0.00 | 0.00 | 99 | 1012.4 |
| 20260906095228 | 73 | 103 | 0.0 | 0.0 | 0.00 | 0.00 | 0.00 | 99 | 1012.5 |
| 20260906094727 | 73 | 103 | 0.0 | 0.0 | 0.00 | 0.00 | 0.00 | 99 | 1012.3 |
| 20260906094222 | 73 | 103 | 0.0 | 0.0 | 0.00 | 0.00 | 0.00 | 99 | 1012.3 |
| 20260906093719 | 73 | 103 | 0.0 | 0.0 | 0.00 | 0.00 | 0.00 | 99 | 1012.5 |
| 20260906093213 | 73 | 103 | 0.0 | 0.0 | 0.00 | 0.00 | 0.00 | 99 | 1012.4 |
| 20260906092703 | 73 | 103 | 0.0 | 0.0 | 0.00 | 0.00 | 0.00 | 99 | 1012.4 |
| 20260906092202 | 73 | 103 | 0.0 | 0.0 | 0.00 | 0.00 | 0.00 | 99 | 1012.5 |
| 20260906091659 | 73 | 103 | 0.0 | 0.0 | 0.00 | 0.00 | 0.00 | 99 | 1012.4 |
| 20260906091155 | 73 | 103 | 0.0 | 0.0 | 0.00 | 0.00 | 0.00 | 99 | 1012.4 |
| 20260906090651 | 73 | 103 | 0.0 | 0.0 | 0.00 | 0.00 | 0.00 | 99 | 1012.6 |
| 20260906090150 | 73 | 103 | 0.0 | 0.0 | 0.00 | 0.00 | 0.00 | 99 | 1012.4 |
| 20260906085649 | 73 | 103 | 0.0 | 0.0 | 0.00 | 0.00 | 0.00 | 99 | 1012.3 |
| 20260906085143 | 73 | 103 | 0.0 | 0.0 | 0.00 | 0.00 | 0.00 | 99 | 1012.6 |
| 20260906084637 | 73 | 102 | 0.0 | 0.0 | 0.00 | 0.00 | 0.00 | 99 | 1012.6 |
| 20260906084137 | 73 | 102 | 0.0 | 0.0 | 0.00 | 0.00 | 0.00 | 99 | 1012.4 |
| 20260906083632 | 73 | 102 | 0.0 | 0.0 | 0.00 | 0.00 | 0.00 | 99 | 1012.3 |
| 20260906083127 | 73 | 102 | 0.0 | 0.0 | 0.00 | 0.00 | 0.00 | 99 | 1012.4 |
| 20260906082623 | 73 | 102 | 0.0 | 0.0 | 0.00 | 0.00 | 0.00 | 99 | 1012.3 |
| 20260906082118 | 74 | 102 | 0.0 | 0.0 | 0.00 | 0.00 | 0.00 | 99 | 1012.5 |
| 20260906081614 | 74 | 102 | 0.0 | 0.0 | 0.00 | 0.00 | 0.00 | 99 | 1012.5 |
| 20260906081109 | 74 | 102 | 0.0 | 0.0 | 0.00 | 0.00 | 0.00 | 99 | 1012.6 |
| 20260906080605 | 74 | 102 | 0.0 | 0.0 | 0.00 | 0.00 | 0.00 | 99 | 1012.8 |
| 20260906075555 | 74 | 102 | 0.0 | 0.0 | 0.00 | 0.00 | 0.00 | 99 | 1012.6 |
| 20260906075050 | 74 | 102 | 0.0 | 0.0 | 0.00 | 0.00 | 0.00 | 99 | 1012.6 |
| 20260906074545 | 74 | 102 | 0.0 | 0.0 | 0.00 | 0.00 | 0.00 | 99 | 1012.6 |
| 20260906074043 | 74 | 102 | 0.0 | 0.0 | 0.00 | 0.00 | 0.00 | 99 | 1012.6 |
| 20260906073539 | 74 | 102 | 0.0 | 0.0 | 0.00 | 0.00 | 0.00 | 99 | 1012.5 |
| 20260906073035 | 74 | 102 | 0.0 | 0.0 | 0.00 | 0.00 | 0.00 | 99 | 1012.5 |
| 20260906072529 | 74 | 102 | 0.0 | 0.0 | 0.00 | 0.00 | 0.00 | 99 | 1012.9 |
| 20260906072026 | 74 | 102 | 0.0 | 0.0 | 0.00 | 0.00 | 0.00 | 99 | 1012.8 |
| 20260906071522 | 74 | 102 | 0.0 | 0.0 | 0.00 | 0.00 | 0.00 | 99 | 1012.8 |
| 20260906071016 | 74 | 110 | 0.0 | 0.0 | 0.00 | 0.00 | 0.00 | 99 | 1012.5 |
| 20260906070513 | 74 | 110 | 0.0 | 0.0 | 0.00 | 0.00 | 0.00 | 99 | 1012.4 |
| 20260906070008 | 74 | 110 | 0.0 | 0.0 | 0.00 | 0.00 | 0.00 | 99 | 1012.5 |
| 20260906065502 | 74 | 110 | 0.0 | 0.0 | 0.00 | 0.00 | 0.00 | 99 | 1012.4 |
| 20260906064957 | 74 | 110 | 0.0 | 0.0 | 0.00 | 0.00 | 0.00 | 99 | 1012.6 |
| 20260906064453 | 74 | 110 | 0.0 | 0.0 | 0.00 | 0.00 | 0.00 | 99 | 1012.5 |
| 20260906063948 | 74 | 110 | 0.0 | 0.0 | 0.00 | 0.00 | 0.00 | 99 | 1012.8 |
| 20260906063444 | 74 | 110 | 0.0 | 0.0 | 0.00 | 0.00 | 0.00 | 99 | 1012.6 |
| 20260906062944 | 74 | 110 | 0.0 | 0.0 | 0.00 | 0.00 | 0.00 | 99 | 1012.5 |
| 20260906062439 | 74 | 110 | 0.0 | 0.0 | 0.00 | 0.00 | 0.00 | 99 | 1012.3 |
| 20260906061934 | 74 | 110 | 0.0 | 0.0 | 0.00 | 0.00 | 0.00 | 99 | 1012.3 |
| 20260906061429 | 74 | 110 | 0.0 | 0.0 | 0.00 | 0.00 | 0.00 | 99 | 1012.4 |
| 20260906060924 | 74 | 110 | 0.0 | 0.0 | 0.00 | 0.00 | 0.00 | 99 | 1012.3 |
| 20260906060421 | 74 | 110 | 0.0 | 0.0 | 0.00 | 0.00 | 0.00 | 99 | 1012.3 |
| 20260906055917 | 74 | 109 | 0.0 | 0.0 | 0.00 | 0.00 | 0.00 | 99 | 1012.3 |
| 20260906055413 | 74 | 109 | 0.0 | 0.0 | 0.00 | 0.00 | 0.00 | 99 | 1012.2 |
| 20260906054908 | 74 | 109 | 0.0 | 0.0 | 0.00 | 0.00 | 0.00 | 99 | 1012.0 |
| 20260906054403 | 74 | 109 | 0.0 | 0.0 | 0.00 | 0.00 | 0.00 | 99 | 1012.2 |
| 20260906053859 | 74 | 105 | 0.0 | 0.0 | 0.00 | 0.00 | 0.00 | 99 | 1012.4 |
| 20260906053355 | 74 | 105 | 0.0 | 0.0 | 0.00 | 0.00 | 0.00 | 99 | 1012.2 |
| 20260906052850 | 75 | 105 | 0.0 | 0.0 | 0.00 | 0.00 | 0.00 | 99 | 1012.2 |
| 20260906052346 | 75 | 105 | 0.0 | 0.0 | 0.00 | 0.00 | 0.00 | 99 | 1012.1 |
| 20260906051843 | 74 | 107 | 0.0 | 0.0 | 0.00 | 0.00 | 0.00 | 99 | 1012.3 |
| 20260906051343 | 74 | 107 | 0.0 | 0.0 | 0.00 | 0.00 | 0.00 | 99 | 1012.0 |
| 20260906050839 | 75 | 107 | 0.0 | 0.0 | 0.00 | 0.00 | 0.00 | 99 | 1012.0 |
| 20260906050333 | 75 | 107 | 0.0 | 0.0 | 0.00 | 0.00 | 0.00 | 99 | 1012.1 |
| 20260906045832 | 75 | 107 | 0.0 | 0.0 | 0.00 | 0.64 | 0.64 | 99 | 1012.2 |
| 20260906045327 | 75 | 107 | 0.0 | 0.0 | 0.00 | 0.64 | 0.64 | 99 | 1012.2 |
| 20260906044823 | 75 | 107 | 0.0 | 0.0 | 0.00 | 0.64 | 0.64 | 99 | 1011.8 |
| 20260906044323 | 75 | 107 | 0.0 | 0.0 | 0.00 | 0.64 | 0.64 | 99 | 1011.9 |
| 20260906043819 | 75 | 107 | 0.0 | 0.0 | 0.00 | 0.64 | 0.64 | 99 | 1012.2 |
| 20260906043315 | 75 | 107 | 0.0 | 0.0 | 0.00 | 0.64 | 0.64 | 99 | 1012.2 |
| 20260906042815 | 75 | 106 | 0.0 | 0.0 | 0.00 | 0.64 | 0.64 | 99 | 1012.1 |
| 20260906042314 | 75 | 107 | 0.0 | 0.0 | 0.00 | 0.64 | 0.64 | 99 | 1012.1 |
| 20260906041809 | 75 | 106 | 0.0 | 0.0 | 0.00 | 0.64 | 0.64 | 99 | 1012.3 |
| 20260906041304 | 75 | 106 | 0.0 | 0.0 | 0.00 | 0.64 | 0.64 | 99 | 1012.3 |
| 20260906040800 | 75 | 106 | 0.0 | 0.0 | 0.00 | 0.64 | 0.64 | 99 | 1012.3 |
| 20260906040255 | 75 | 106 | 0.0 | 0.0 | 0.00 | 0.64 | 0.64 | 99 | 1012.2 |
| 20260906035750 | 75 | 114 | 0.0 | 0.0 | 0.00 | 0.64 | 0.64 | 99 | 1012.1 |
| 20260906035246 | 75 | 111 | 0.0 | 0.0 | 0.00 | 0.64 | 0.64 | 99 | 1012.5 |
| 20260906034746 | 75 | 111 | 0.0 | 0.0 | 0.00 | 0.64 | 0.64 | 99 | 1012.5 |
| 20260906034241 | 75 | 111 | 0.0 | 0.0 | 0.00 | 0.64 | 0.64 | 99 | 1012.3 |
| 20260906033737 | 75 | 111 | 0.0 | 0.0 | 0.00 | 0.64 | 0.64 | 99 | 1012.3 |
| 20260906033236 | 75 | 101 | 0.0 | 0.0 | 0.00 | 0.64 | 0.64 | 99 | 1012.5 |
| 20260906032733 | 75 | 99 | 0.0 | 0.0 | 0.00 | 0.64 | 0.64 | 99 | 1012.4 |
| 20260906032232 | 75 | 97 | 0.0 | 0.0 | 0.00 | 0.64 | 0.64 | 99 | 1012.5 |
| 20260906031728 | 75 | 97 | 0.0 | 0.0 | 0.00 | 0.64 | 0.64 | 99 | 1012.3 |
| 20260906031224 | 76 | 115 | 0.0 | 0.0 | 0.00 | 0.64 | 0.64 | 99 | 1012.0 |
| 20260906030723 | 76 | 102 | 0.0 | 0.0 | 0.00 | 0.64 | 0.64 | 99 | 1012.2 |
| 20260906030218 | 76 | 100 | 0.0 | 0.0 | 0.00 | 0.64 | 0.64 | 99 | 1011.9 |
| 20260906025717 | 76 | 100 | 0.0 | 0.0 | 0.00 | 0.64 | 0.64 | 99 | 1012.1 |
| 20260906025212 | 76 | 100 | 0.0 | 0.0 | 0.00 | 0.64 | 0.64 | 99 | 1011.8 |
| 20260906024711 | 76 | 102 | 0.0 | 0.0 | 0.00 | 0.64 | 0.64 | 99 | 1011.9 |
| 20260906024210 | 76 | 99 | 0.0 | 0.0 | 0.00 | 0.64 | 0.64 | 99 | 1011.9 |
| 20260906023707 | 76 | 109 | 0.0 | 0.0 | 0.00 | 0.64 | 0.64 | 99 | 1011.8 |
| 20260906023201 | 76 | 88 | 0.0 | 0.0 | 0.00 | 0.64 | 0.64 | 99 | 1011.8 |
| 20260906022656 | 76 | 111 | 0.0 | 0.0 | 0.00 | 0.64 | 0.64 | 99 | 1011.7 |
| 20260906022152 | 76 | 111 | 0.0 | 0.0 | 0.00 | 0.64 | 0.64 | 99 | 1011.7 |
| 20260906021648 | 76 | 100 | 0.0 | 0.0 | 0.00 | 0.64 | 0.64 | 99 | 1011.9 |
| 20260906021146 | 76 | 96 | 0.0 | 0.0 | 0.00 | 0.64 | 0.64 | 99 | 1012.1 |
| 20260906020641 | 76 | 106 | 0.0 | 0.0 | 0.00 | 0.64 | 0.64 | 99 | 1011.9 |
| 20260906020136 | 76 | 97 | 0.0 | 0.0 | 0.00 | 0.64 | 0.64 | 99 | 1012.0 |
| 20260906015630 | 77 | 100 | 0.0 | 0.0 | 0.00 | 0.64 | 0.64 | 99 | 1012.2 |
| 20260906015129 | 77 | 100 | 0.0 | 0.0 | 0.00 | 0.64 | 0.64 | 99 | 1012.1 |
| 20260906014623 | 77 | 108 | 0.0 | 0.0 | 0.00 | 0.64 | 0.64 | 99 | 1012.2 |
| 20260906014119 | 77 | 108 | 0.0 | 0.0 | 0.00 | 0.64 | 0.64 | 99 | 1012.1 |
| 20260906013614 | 77 | 95 | 0.0 | 0.0 | 0.00 | 0.64 | 0.64 | 99 | 1012.0 |
| 20260906013110 | 77 | 99 | 0.0 | 0.0 | 0.00 | 0.64 | 0.64 | 99 | 1012.1 |
| 20260906012605 | 77 | 112 | 0.0 | 0.0 | 0.00 | 0.64 | 0.64 | 99 | 1011.9 |
| 20260906012059 | 77 | 108 | 0.0 | 0.0 | 0.00 | 0.64 | 0.64 | 99 | 1012.2 |
| 20260906011555 | 78 | 113 | 0.0 | 0.0 | 0.00 | 0.64 | 0.64 | 99 | 1012.1 |
| 20260906011055 | 78 | 92 | 0.0 | 0.0 | 0.00 | 0.64 | 0.64 | 99 | 1012.2 |
| 20260906010551 | 78 | 72 | 0.0 | 1.0 | 0.00 | 0.64 | 0.64 | 99 | 1011.9 |
| 20260906010047 | 78 | 89 | 0.0 | 0.0 | 0.00 | 0.64 | 0.64 | 99 | 1011.8 |
| 20260906005546 | 78 | 84 | 0.0 | 0.0 | 0.00 | 0.64 | 0.64 | 99 | 1011.7 |
| 20260906005045 | 78 | 117 | 0.0 | 0.0 | 0.00 | 0.64 | 0.64 | 99 | 1011.5 |
| 20260906004545 | 78 | 122 | 0.0 | 0.0 | 0.00 | 0.64 | 0.64 | 99 | 1011.6 |
| 20260906004039 | 78 | 118 | 0.0 | 0.0 | 0.00 | 0.64 | 0.64 | 99 | 1011.6 |
| 20260906003534 | 78 | 102 | 0.0 | 0.0 | 0.00 | 0.64 | 0.64 | 99 | 1011.8 |
| 20260906003031 | 78 | 106 | 0.0 | 0.0 | 0.00 | 0.64 | 0.64 | 99 | 1011.8 |
| 20260906002525 | 78 | 106 | 0.0 | 0.0 | 0.00 | 0.64 | 0.64 | 99 | 1011.9 |
| 20260906002020 | 78 | 100 | 0.0 | 0.0 | 0.00 | 0.64 | 0.64 | 99 | 1012.1 |
| 20260906001515 | 78 | 100 | 0.0 | 0.0 | 0.00 | 0.64 | 0.64 | 99 | 1012.2 |
| 20260906001004 | 78 | 99 | 0.0 | 0.0 | 0.00 | 0.64 | 0.64 | 99 | 1012.3 |
| 20260906000500 | 78 | 98 | 0.0 | 0.0 | 0.00 | 0.64 | 0.64 | 99 | 1012.1 |
| 20260905235959 | 78 | 105 | 0.0 | 0.0 | 0.00 | 0.64 | 0.64 | 99 | 1012.2 |
| 20260905235454 | 78 | 105 | 0.0 | 0.0 | 0.00 | 0.64 | 0.64 | 99 | 1012.2 |
| 20260905234949 | 78 | 105 | 0.0 | 0.0 | 0.00 | 0.64 | 0.64 | 99 | 1012.3 |
| 20260905234444 | 78 | 107 | 0.0 | 0.0 | 0.00 | 0.64 | 0.64 | 99 | 1012.1 |
| 20260905233939 | 78 | 107 | 0.0 | 0.0 | 0.00 | 0.64 | 0.64 | 99 | 1012.2 |
| 20260905233434 | 78 | 116 | 0.0 | 0.0 | 0.00 | 0.64 | 0.64 | 99 | 1012.0 |
| 20260905232933 | 78 | 117 | 0.0 | 0.0 | 0.00 | 0.64 | 0.64 | 99 | 1011.9 |
| 20260905232429 | 78 | 117 | 0.0 | 0.0 | 0.00 | 0.64 | 0.64 | 99 | 1012.2 |
| 20260905231925 | 78 | 119 | 0.0 | 0.0 | 0.00 | 0.64 | 0.64 | 99 | 1012.0 |
| 20260905231421 | 78 | 119 | 0.0 | 0.0 | 0.00 | 0.64 | 0.64 | 99 | 1012.0 |
| 20260905230917 | 78 | 119 | 0.0 | 0.0 | 0.00 | 0.64 | 0.64 | 99 | 1012.1 |
| 20260905230414 | 78 | 105 | 0.0 | 0.0 | 0.00 | 0.64 | 0.64 | 99 | 1011.9 |
| 20260905225908 | 78 | 122 | 0.0 | 0.0 | 0.00 | 0.64 | 0.64 | 99 | 1011.8 |
| 20260905225403 | 78 | 108 | 0.0 | 0.0 | 0.00 | 0.64 | 0.64 | 99 | 1011.9 |
| 20260905224858 | 78 | 124 | 0.0 | 0.0 | 0.00 | 0.64 | 0.64 | 99 | 1011.8 |
| 20260905224353 | 78 | 101 | 0.0 | 0.0 | 0.00 | 0.64 | 0.64 | 99 | 1011.6 |
| 20260905223848 | 78 | 101 | 0.0 | 0.0 | 0.00 | 0.64 | 0.64 | 99 | 1011.6 |
| 20260905223346 | 78 | 97 | 0.0 | 0.0 | 0.00 | 0.64 | 0.64 | 99 | 1011.8 |
| 20260905222840 | 78 | 101 | 0.0 | 0.0 | 0.00 | 0.64 | 0.64 | 99 | 1011.7 |
| 20260905222339 | 77 | 101 | 0.0 | 0.0 | 0.00 | 0.64 | 0.64 | 99 | 1011.6 |
| 20260905221835 | 77 | 98 | 0.0 | 0.0 | 0.00 | 0.64 | 0.64 | 99 | 1011.8 |
| 20260905221332 | 77 | 97 | 0.0 | 0.0 | 0.00 | 0.64 | 0.64 | 99 | 1012.0 |
| 20260905220827 | 77 | 100 | 0.0 | 0.0 | 0.00 | 0.64 | 0.64 | 99 | 1012.1 |
| 20260905220323 | 77 | 92 | 1.0 | 1.0 | 0.00 | 0.64 | 0.64 | 99 | 1012.1 |
| 20260905215822 | 77 | 100 | 0.0 | 0.0 | 0.00 | 0.64 | 0.64 | 99 | 1012.1 |
| 20260905215318 | 77 | 102 | 0.0 | 0.0 | 0.00 | 0.64 | 0.64 | 99 | 1012.1 |
| 20260905214815 | 77 | 101 | 0.0 | 0.0 | 0.00 | 0.64 | 0.64 | 99 | 1012.1 |
| 20260905214310 | 77 | 106 | 0.0 | 0.0 | 0.00 | 0.64 | 0.64 | 99 | 1012.1 |
| 20260905213805 | 76 | 105 | 0.0 | 0.0 | 0.00 | 0.64 | 0.64 | 99 | 1011.8 |
| 20260905213301 | 77 | 105 | 0.0 | 0.0 | 0.00 | 0.64 | 0.64 | 99 | 1011.8 |
| 20260905212755 | 76 | 99 | 0.0 | 0.0 | 0.00 | 0.64 | 0.64 | 99 | 1011.8 |
| 20260905212254 | 76 | 114 | 0.0 | 0.0 | 0.05 | 0.64 | 0.64 | 99 | 1011.9 |
| 20260905211749 | 76 | 120 | 0.0 | 0.0 | 0.05 | 0.64 | 0.64 | 99 | 1011.5 |
| 20260905211244 | 76 | 118 | 0.0 | 0.0 | 0.00 | 0.63 | 0.63 | 99 | 1011.8 |
| 20260905210742 | 76 | 118 | 0.0 | 0.0 | 0.07 | 0.63 | 0.63 | 99 | 1011.8 |
| 20260905210240 | 76 | 113 | 0.0 | 0.0 | 0.07 | 0.63 | 0.63 | 99 | 1012.1 |
| 20260905205739 | 76 | 111 | 0.0 | 0.0 | 0.05 | 0.62 | 0.62 | 99 | 1012.1 |
| 20260905205235 | 75 | 119 | 0.0 | 0.0 | 0.05 | 0.62 | 0.62 | 99 | 1012.5 |
| 20260905204734 | 76 | 119 | 0.0 | 0.0 | 0.07 | 0.61 | 0.61 | 99 | 1012.4 |
| 20260905204230 | 76 | 119 | 0.0 | 0.0 | 0.19 | 0.61 | 0.61 | 99 | 1012.6 |
| 20260905203729 | 76 | 109 | 0.0 | 0.0 | 0.24 | 0.60 | 0.60 | 99 | 1013.0 |
| 20260905203225 | 76 | 109 | 0.0 | 0.0 | 0.24 | 0.58 | 0.58 | 99 | 1013.3 |
| 20260905202720 | 75 | 109 | 0.0 | 0.0 | 0.24 | 0.56 | 0.56 | 99 | 1013.3 |
| 20260905202215 | 75 | 105 | 0.0 | 0.0 | 0.31 | 0.54 | 0.54 | 99 | 1013.5 |
| 20260905201710 | 76 | 88 | 0.0 | 0.0 | 0.35 | 0.51 | 0.51 | 99 | 1013.4 |
| 20260905201205 | 75 | 102 | 0.0 | 0.0 | 0.42 | 0.48 | 0.48 | 99 | 1013.2 |
| 20260905200700 | 76 | 75 | 0.0 | 0.0 | 0.54 | 0.45 | 0.45 | 99 | 1013.1 |
| 20260905200155 | 76 | 111 | 0.0 | 0.0 | 0.59 | 0.41 | 0.41 | 99 | 1013.1 |
| 20260905195654 | 77 | 131 | 0.0 | 0.0 | 0.66 | 0.36 | 0.36 | 99 | 1013.3 |
| 20260905195149 | 77 | 107 | 0.0 | 0.0 | 0.78 | 0.31 | 0.31 | 99 | 1013.3 |